Location: Csohesd
(46.2500°N, 22.6167°E)
Time: 06:11:59
(UTC+00:00)

Cosmos 1300 - Pass Details

Date: 21 October 2021
Orbit: 509 x 512 km, 82.5° (Epoch: 04 December)

Event Time Altitude Azimuth Distance (km) Brightness Sun altitude
Rises 17:07:01 0° 191° (S) 2,612 6.4 -17.0°
Reaches altitude 10° 17:09:08 10° 192° (SSW) 1,731 5.5 -17.4°
Maximum altitude 17:12:55 78° 278° (W) 531 2.8 -18.0°
Drops below altitude 10° 17:16:45 10° 6° (N) 1,746 5.3 -18.7°
Sets 17:18:54 0° 8° (N) 2,637 6.3 -19.1°
